Tracking 19794 objects as of 21-Jul-2019
HD Live streaming from Space Station
objects crossing your sky now

NOAA 16 DEB

Track NOAA 16 DEB now!
10-day predictions


NORAD ID: 41250
Int'l Code: 2000-055FA
Perigee: 830.5 km
Apogee: 903.5 km
Inclination: 99.1 °
Period: 102.1 minutes
Semi major axis: 7237 km
RCS: Unknown
Launch date: September 21, 2000
Source: United States (US)
Launch site: AIR FORCE WESTERN TEST RANGE (AFWTR)

Note: This is SATELLITE DEBRIS
aabbcc
Your satellite tracking list
Your tracking list is empty




NASA's NSSDC Master Catalog

Two Line Element Set (TLE):
1 41250U 00055FA  19201.05579583 +.00001305 +00000-0 +75838-3 0  9990
2 41250 099.0595 291.9203 0050401 226.4085 133.2897 14.09864382184791
Source of the keplerian elements: AFSPC